Wetterdaten: Samstag, 07.01.2017
Datum Zeit Temp. A. Aussentemp2 Feuchte A. Luftdruck Regen Wind Richtung Richtung Sonnenschein Helligkeit Solar
07.01.2017 00:00 -3,8 C 1,1 C 73 % 1036,1 hPa 0,0 l/m 14,7 km/h (3 Bft) S-SO22.5 165 0 min 13,3 klux 0 W/m
07.01.2017 00:05 -3,8 C 1,0 C 74 % 1036,1 hPa 0,0 l/m 19,1 km/h (3 Bft) S-SO22.5 160 0 min 13,3 klux 0 W/m
07.01.2017 00:10 -3,8 C 1,0 C 73 % 1036,1 hPa 0,0 l/m 16,1 km/h (3 Bft) S45 170 0 min 13,3 klux 0 W/m
07.01.2017 00:15 -3,7 C 0,9 C 73 % 1036,1 hPa 0,0 l/m 19,8 km/h (3 Bft) S-SO22.5 165 0 min 13,3 klux 0 W/m
07.01.2017 00:21 -3,7 C 1,0 C 73 % 1036,1 hPa 0,0 l/m 15,0 km/h (3 Bft) S-SO45 155 0 min 13,3 klux 0 W/m
07.01.2017 00:25 -3,7 C 0,9 C 73 % 1036,1 hPa 0,0 l/m 18,9 km/h (3 Bft) S-SO45 160 0 min 13,3 klux 0 W/m
07.01.2017 00:30 -3,7 C 0,8 C 73 % 1036,1 hPa 0,0 l/m 20,4 km/h (4 Bft) S-SO45 165 0 min 13,3 klux 0 W/m
07.01.2017 00:35 -3,7 C 1,0 C 73 % 1036,1 hPa 0,0 l/m 18,3 km/h (3 Bft) S-SO22.5 160 0 min 13,3 klux 0 W/m
07.01.2017 00:40 -3,7 C 0,9 C 73 % 1036,1 hPa 0,0 l/m 16,8 km/h (3 Bft) S-SO45 160 0 min 13,3 klux 0 W/m
07.01.2017 00:45 -3,7 C 0,9 C 73 % 1036,1 hPa 0,0 l/m 18,4 km/h (3 Bft) S-SO45 165 0 min 13,3 klux 0 W/m
07.01.2017 00:50 -3,7 C 0,8 C 73 % 1036,1 hPa 0,0 l/m 18,4 km/h (3 Bft) S-SO45 165 0 min 13,3 klux 0 W/m
07.01.2017 00:55 -3,7 C 0,8 C 73 % 1036,1 hPa 0,0 l/m 15,2 km/h (3 Bft) S-SO45 165 0 min 13,3 klux 0 W/m
07.01.2017 01:00 -3,7 C 1,0 C 74 % 1036,1 hPa 0,0 l/m 15,3 km/h (3 Bft) S22.5 170 0 min 13,3 klux 0 W/m
07.01.2017 01:06 -3,7 C 1,0 C 74 % 1035,1 hPa 0,0 l/m 18,0 km/h (3 Bft) S22.5 170 0 min 13,3 klux 0 W/m
07.01.2017 01:10 -3,8 C 0,8 C 73 % 1035,1 hPa 0,0 l/m 17,6 km/h (3 Bft) S-SO45 165 0 min 13,3 klux 0 W/m
07.01.2017 01:15 -3,8 C 0,8 C 73 % 1035,1 hPa 0,0 l/m 17,5 km/h (3 Bft) S-SO22.5 165 0 min 13,3 klux 0 W/m
07.01.2017 01:20 -3,8 C 0,8 C 73 % 1035,1 hPa 0,0 l/m 17,6 km/h (3 Bft) S22.5 170 0 min 13,3 klux 0 W/m
07.01.2017 01:25 -3,8 C 0,8 C 73 % 1035,1 hPa 0,0 l/m 18,8 km/h (3 Bft) S45 170 0 min 13,3 klux 0 W/m
07.01.2017 01:31 -3,9 C 0,8 C 74 % 1035,1 hPa 0,0 l/m 16,3 km/h (3 Bft) S22.5 170 0 min 13,3 klux 0 W/m
07.01.2017 01:35 -3,9 C 0,8 C 74 % 1035,1 hPa 0,0 l/m 17,0 km/h (3 Bft) S45 170 0 min 13,3 klux 0 W/m
07.01.2017 01:40 -4,0 C 0,7 C 74 % 1035,1 hPa 0,0 l/m 16,5 km/h (3 Bft) S22.5 180 0 min 13,3 klux 0 W/m
07.01.2017 01:45 -4,0 C 0,9 C 74 % 1035,1 hPa 0,0 l/m 14,5 km/h (3 Bft) S22.5 175 0 min 13,3 klux 0 W/m
07.01.2017 01:50 -4,0 C 0,8 C 74 % 1035,1 hPa 0,0 l/m 17,3 km/h (3 Bft) S-SO22.5 160 0 min 13,3 klux 0 W/m
07.01.2017 01:56 -3,9 C 0,7 C 74 % 1035,1 hPa 0,0 l/m 17,5 km/h (3 Bft) S22.5 170 0 min 13,3 klux 0 W/m
07.01.2017 02:00 -4,0 C 0,8 C 74 % 1035,1 hPa 0,0 l/m 14,2 km/h (3 Bft) S22.5 175 0 min 13,3 klux 0 W/m
07.01.2017 02:05 -3,9 C 0,7 C 74 % 1035,1 hPa 0,0 l/m 16,1 km/h (3 Bft) S-SO22.5 165 0 min 13,3 klux 0 W/m
07.01.2017 02:10 -3,9 C 0,7 C 74 % 1035,1 hPa 0,0 l/m 14,9 km/h (3 Bft) S-SO22.5 165 0 min 13,3 klux 0 W/m
07.01.2017 02:11 -3,9 C 0,7 C 74 % 1035,1 hPa 0,0 l/m 14,9 km/h (3 Bft) S-SO22.5 165 0 min 13,3 klux 0 W/m
07.01.2017 02:15 -3,9 C 0,6 C 74 % 1035,1 hPa 0,0 l/m 17,3 km/h (3 Bft) S45 170 0 min 13,3 klux 0 W/m
07.01.2017 02:21 -3,9 C 0,8 C 74 % 1035,1 hPa 0,0 l/m 18,9 km/h (3 Bft) S22.5 175 0 min 13,3 klux 0 W/m
07.01.2017 02:25 -3,8 C 0,8 C 74 % 1035,1 hPa 0,0 l/m 14,3 km/h (3 Bft) S-SO22.5 165 0 min 13,3 klux 0 W/m
07.01.2017 02:30 -3,8 C 0,8 C 74 % 1035,1 hPa 0,0 l/m 17,5 km/h (3 Bft) S22.5 170 0 min 13,3 klux 0 W/m
07.01.2017 02:35 -3,8 C 0,9 C 74 % 1035,1 hPa 0,0 l/m 13,1 km/h (3 Bft) S22.5 170 0 min 13,3 klux 0 W/m
07.01.2017 02:40 -3,8 C 0,8 C 74 % 1035,1 hPa 0,0 l/m 16,6 km/h (3 Bft) S22.5 170 0 min 13,3 klux 0 W/m
07.01.2017 02:46 -3,8 C 0,8 C 73 % 1035,1 hPa 0,0 l/m 17,8 km/h (3 Bft) S-SO22.5 165 0 min 13,3 klux 0 W/m
07.01.2017 02:50 -3,8 C 0,8 C 73 % 1035,1 hPa 0,0 l/m 14,6 km/h (3 Bft) S45 180 0 min 13,3 klux 0 W/m
07.01.2017 02:55 -3,7 C 0,9 C 73 % 1035,1 hPa 0,0 l/m 21,3 km/h (4 Bft) S22.5 170 0 min 13,3 klux 0 W/m
07.01.2017 03:00 -3,8 C 0,8 C 73 % 1035,1 hPa 0,0 l/m 21,4 km/h (4 Bft) S-SO45 165 0 min 13,3 klux 0 W/m
07.01.2017 03:06 -3,7 C 0,7 C 73 % 1035,1 hPa 0,0 l/m 19,5 km/h (3 Bft) S-SO45 165 0 min 13,3 klux 0 W/m
07.01.2017 03:10 -3,7 C 0,7 C 73 % 1035,1 hPa 0,0 l/m 22,9 km/h (4 Bft) S-SO22.5 165 0 min 13,3 klux 0 W/m
07.01.2017 03:15 -3,7 C 0,6 C 73 % 1034,1 hPa 0,0 l/m 18,9 km/h (3 Bft) S-SO22.5 165 0 min 13,3 klux 0 W/m
07.01.2017 03:20 -3,7 C 0,7 C 73 % 1034,1 hPa 0,0 l/m 16,5 km/h (3 Bft) S-SO22.5 165 0 min 13,3 klux 0 W/m
07.01.2017 03:25 -3,6 C 0,8 C 73 % 1034,1 hPa 0,0 l/m 17,3 km/h (3 Bft) S-SO22.5 160 0 min 13,3 klux 0 W/m
07.01.2017 03:31 -3,7 C 0,8 C 73 % 1034,1 hPa 0,0 l/m 15,7 km/h (3 Bft) S-SO45 155 0 min 13,3 klux 0 W/m
07.01.2017 03:35 -3,7 C 0,6 C 72 % 1034,1 hPa 0,0 l/m 19,1 km/h (3 Bft) S-SO22.5 160 0 min 13,3 klux 0 W/m
07.01.2017 03:40 -3,7 C 0,6 C 72 % 1034,1 hPa 0,0 l/m 21,5 km/h (4 Bft) S22.5 170 0 min 13,3 klux 0 W/m
07.01.2017 03:45 -3,6 C 0,7 C 73 % 1034,1 hPa 0,0 l/m 17,1 km/h (3 Bft) S-SO22.5 165 0 min 13,3 klux 0 W/m
07.01.2017 03:50 -3,6 C 0,8 C 73 % 1034,1 hPa 0,0 l/m 14,6 km/h (3 Bft) S22.5 175 0 min 13,3 klux 0 W/m
07.01.2017 03:55 -3,6 C 0,8 C 73 % 1034,1 hPa 0,0 l/m 15,6 km/h (3 Bft) S-SO22.5 165 0 min 13,3 klux 0 W/m
07.01.2017 04:00 -3,6 C 0,7 C 73 % 1034,1 hPa 0,0 l/m 13,3 km/h (3 Bft) S-SO22.5 160 0 min 13,3 klux 0 W/m
07.01.2017 04:05 -3,5 C 0,8 C 73 % 1034,1 hPa 0,0 l/m 13,8 km/h (3 Bft) S22.5 175 0 min 13,3 klux 0 W/m
07.01.2017 04:10 -3,5 C 0,9 C 73 % 1034,1 hPa 0,0 l/m 16,1 km/h (3 Bft) S45 185 0 min 13,3 klux 0 W/m
07.01.2017 04:15 -3,5 C 0,6 C 73 % 1034,1 hPa 0,0 l/m 17,2 km/h (3 Bft) S22.5 170 0 min 13,3 klux 0 W/m
07.01.2017 04:20 -3,6 C 0,8 C 73 % 1034,1 hPa 0,0 l/m 15,1 km/h (3 Bft) S-SO22.5 160 0 min 13,3 klux 0 W/m
07.01.2017 04:26 -3,6 C 0,7 C 73 % 1034,1 hPa 0,0 l/m 16,9 km/h (3 Bft) S-SO45 165 0 min 13,3 klux 0 W/m
07.01.2017 04:30 -3,6 C 0,6 C 73 % 1034,1 hPa 0,0 l/m 23,1 km/h (4 Bft) S-SO22.5 155 0 min 13,3 klux 0 W/m
07.01.2017 04:35 -3,6 C 0,6 C 73 % 1034,1 hPa 0,0 l/m 17,2 km/h (3 Bft) S22.5 170 0 min 13,3 klux 0 W/m
07.01.2017 04:40 -3,6 C 0,6 C 73 % 1034,1 hPa 0,0 l/m 19,9 km/h (4 Bft) S22.5 170 0 min 13,3 klux 0 W/m
07.01.2017 04:45 -3,6 C 0,7 C 73 % 1034,1 hPa 0,0 l/m 19,6 km/h (3 Bft) S-SO45 160 0 min 13,3 klux 0 W/m
07.01.2017 04:51 -3,7 C 0,8 C 72 % 1034,1 hPa 0,0 l/m 14,1 km/h (3 Bft) S-SO45 165 0 min 13,3 klux 0 W/m
07.01.2017 04:55 -3,6 C 0,8 C 73 % 1034,1 hPa 0,0 l/m 15,8 km/h (3 Bft) S22.5 170 0 min 13,3 klux 0 W/m
07.01.2017 05:00 -3,6 C 0,8 C 72 % 1034,1 hPa 0,0 l/m 17,1 km/h (3 Bft) S-SO22.5 165 0 min 13,3 klux 0 W/m
07.01.2017 05:05 -3,5 C 0,8 C 72 % 1034,1 hPa 0,0 l/m 16,1 km/h (3 Bft) S22.5 170 0 min 13,3 klux 0 W/m
07.01.2017 05:10 -3,5 C 0,7 C 72 % 1034,1 hPa 0,0 l/m 17,0 km/h (3 Bft) S22.5 170 0 min 13,3 klux 0 W/m
07.01.2017 05:15 -3,5 C 0,7 C 73 % 1034,1 hPa 0,0 l/m 13,8 km/h (3 Bft) S-SO22.5 160 0 min 13,3 klux 0 W/m
07.01.2017 05:20 -3,5 C 0,9 C 73 % 1034,1 hPa 0,0 l/m 11,6 km/h (2 Bft) S-SO22.5 165 0 min 13,3 klux 0 W/m
07.01.2017 05:25 -3,4 C 0,7 C 73 % 1034,1 hPa 0,0 l/m 17,0 km/h (3 Bft) S-SO22.5 165 0 min 13,3 klux 0 W/m
07.01.2017 05:30 -3,5 C 0,7 C 72 % 1034,1 hPa 0,0 l/m 22,0 km/h (4 Bft) S-SO22.5 165 0 min 13,3 klux 0 W/m
07.01.2017 05:35 -3,5 C 0,8 C 73 % 1033,0 hPa 0,0 l/m 15,0 km/h (3 Bft) S22.5 170 0 min 13,3 klux 0 W/m
07.01.2017 05:40 -3,5 C 0,8 C 73 % 1033,0 hPa 0,0 l/m 16,7 km/h (3 Bft) S22.5 170 0 min 13,3 klux 0 W/m
07.01.2017 05:45 -3,5 C 0,7 C 73 % 1033,0 hPa 0,0 l/m 18,9 km/h (3 Bft) S22.5 170 0 min 13,3 klux 0 W/m
07.01.2017 05:50 -3,5 C 0,5 C 73 % 1033,0 hPa 0,0 l/m 17,3 km/h (3 Bft) S-SO22.5 165 0 min 13,3 klux 0 W/m
07.01.2017 05:55 -3,6 C 0,5 C 72 % 1033,1 hPa 0,0 l/m 20,8 km/h (4 Bft) S-SO22.5 165 0 min 13,3 klux 0 W/m
07.01.2017 06:00 -3,5 C 0,6 C 73 % 1033,0 hPa 0,0 l/m 18,5 km/h (3 Bft) S45 170 0 min 13,3 klux 0 W/m
07.01.2017 06:05 -3,5 C 0,6 C 73 % 1033,0 hPa 0,0 l/m 20,0 km/h (4 Bft) S45 170 0 min 13,3 klux 0 W/m
07.01.2017 06:10 -3,5 C 0,6 C 73 % 1033,0 hPa 0,0 l/m 17,0 km/h (3 Bft) S-SO22.5 165 0 min 13,3 klux 0 W/m
07.01.2017 06:16 -3,5 C 0,7 C 73 % 1033,0 hPa 0,0 l/m 16,3 km/h (3 Bft) S22.5 170 0 min 13,3 klux 0 W/m
07.01.2017 06:20 -3,5 C 0,7 C 73 % 1033,0 hPa 0,0 l/m 19,1 km/h (3 Bft) S45 170 0 min 13,3 klux 0 W/m
07.01.2017 06:25 -3,5 C 0,7 C 73 % 1033,0 hPa 0,0 l/m 16,5 km/h (3 Bft) S22.5 180 0 min 13,3 klux 0 W/m
07.01.2017 06:30 -3,6 C 0,7 C 73 % 1033,1 hPa 0,0 l/m 20,1 km/h (4 Bft) S22.5 170 0 min 13,3 klux 0 W/m
07.01.2017 06:35 -3,5 C 0,6 C 73 % 1033,0 hPa 0,0 l/m 15,1 km/h (3 Bft) S-SO22.5 165 0 min 13,3 klux 0 W/m
07.01.2017 06:40 -3,5 C 0,5 C 73 % 1033,0 hPa 0,0 l/m 19,4 km/h (3 Bft) S-SO22.5 165 0 min 13,3 klux 0 W/m
07.01.2017 06:45 -3,6 C 0,7 C 73 % 1033,1 hPa 0,0 l/m 21,6 km/h (4 Bft) S22.5 175 0 min 13,3 klux 0 W/m
07.01.2017 06:50 -3,6 C 0,6 C 73 % 1033,1 hPa 0,0 l/m 18,5 km/h (3 Bft) S-SO45 165 0 min 13,3 klux 0 W/m
07.01.2017 06:55 -3,6 C 0,5 C 73 % 1033,1 hPa 0,0 l/m 20,0 km/h (4 Bft) S-SO22.5 160 0 min 13,3 klux 0 W/m
07.01.2017 07:01 -3,6 C 0,4 C 73 % 1033,1 hPa 0,0 l/m 21,6 km/h (4 Bft) S22.5 170 0 min 13,3 klux 0 W/m
07.01.2017 07:05 -3,6 C 0,4 C 73 % 1033,1 hPa 0,0 l/m 22,7 km/h (4 Bft) S45 180 0 min 13,3 klux 0 W/m
07.01.2017 07:10 -3,7 C 0,4 C 73 % 1033,1 hPa 0,0 l/m 22,6 km/h (4 Bft) S22.5 175 0 min 13,3 klux 0 W/m
07.01.2017 07:15 -3,7 C 0,4 C 73 % 1033,1 hPa 0,0 l/m 18,7 km/h (3 Bft) S22.5 170 0 min 13,3 klux 0 W/m
07.01.2017 07:20 -3,7 C 0,7 C 73 % 1033,1 hPa 0,0 l/m 18,3 km/h (3 Bft) S45 170 0 min 13,3 klux 0 W/m
07.01.2017 07:25 -3,7 C 0,6 C 73 % 1033,1 hPa 0,0 l/m 22,0 km/h (4 Bft) S-SO45 165 0 min 13,3 klux 0 W/m
07.01.2017 07:30 -3,8 C 0,4 C 73 % 1033,1 hPa 0,0 l/m 22,0 km/h (4 Bft) S-SO45 165 0 min 13,3 klux 0 W/m
07.01.2017 07:35 -3,7 C 0,5 C 73 % 1032,0 hPa 0,0 l/m 19,5 km/h (3 Bft) S-SO22.5 160 0 min 13,3 klux 0 W/m
07.01.2017 07:40 -3,7 C 0,5 C 73 % 1032,0 hPa 0,0 l/m 17,3 km/h (3 Bft) S45 175 0 min 13,3 klux 0 W/m
07.01.2017 07:45 -3,7 C 0,6 C 73 % 1032,0 hPa 0,0 l/m 20,0 km/h (4 Bft) S45 170 0 min 13,3 klux 0 W/m
07.01.2017 07:50 -3,7 C 0,5 C 73 % 1032,0 hPa 0,0 l/m 21,8 km/h (4 Bft) S-SO22.5 165 0 min 13,3 klux 0 W/m
07.01.2017 07:56 -3,6 C 0,5 C 73 % 1032,0 hPa 0,0 l/m 24,5 km/h (4 Bft) S-SO22.5 160 0 min 13,3 klux 0 W/m
07.01.2017 08:00 -3,6 C 0,4 C 73 % 1032,0 hPa 0,0 l/m 22,7 km/h (4 Bft) S-SO22.5 165 0 min 13,3 klux 0 W/m
07.01.2017 08:05 -3,6 C 0,6 C 73 % 1032,0 hPa 0,0 l/m 20,0 km/h (4 Bft) S-SO22.5 165 0 min 13,3 klux 0 W/m
07.01.2017 08:11 -3,5 C 0,5 C 73 % 1032,0 hPa 0,0 l/m 19,2 km/h (3 Bft) S22.5 175 0 min 13,3 klux 0 W/m
07.01.2017 08:10 -3,5 C 0,5 C 73 % 1032,0 hPa 0,0 l/m 19,2 km/h (3 Bft) S22.5 175 0 min 13,3 klux 0 W/m
07.01.2017 08:16 -3,4 C 0,5 C 73 % 1032,0 hPa 0,0 l/m 17,7 km/h (3 Bft) S22.5 170 0 min 13,3 klux 0 W/m
07.01.2017 08:20 -3,4 C 0,7 C 73 % 1032,0 hPa 0,0 l/m 15,5 km/h (3 Bft) S22.5 170 0 min 13,3 klux 0 W/m
07.01.2017 08:25 -3,4 C 0,6 C 72 % 1032,0 hPa 0,0 l/m 20,7 km/h (4 Bft) S22.5 175 0 min 13,3 klux 0 W/m
07.01.2017 08:30 -3,3 C 0,5 C 71 % 1032,0 hPa 0,0 l/m 19,3 km/h (3 Bft) S22.5 175 0 min 13,3 klux 0 W/m
07.01.2017 08:35 -3,4 C 0,5 C 71 % 1032,0 hPa 0,0 l/m 19,5 km/h (3 Bft) S45 170 0 min 13,3 klux 0 W/m
07.01.2017 08:41 -3,3 C 0,5 C 71 % 1032,0 hPa 0,0 l/m 19,0 km/h (3 Bft) S22.5 180 0 min 13,3 klux 0 W/m
07.01.2017 08:45 -3,1 C 0,6 C 71 % 1032,0 hPa 0,0 l/m 22,8 km/h (4 Bft) S45 175 0 min 13,3 klux 91 W/m
07.01.2017 08:50 -3,2 C 0,6 C 71 % 1032,0 hPa 0,0 l/m 19,7 km/h (3 Bft) S-SO22.5 160 0 min 13,3 klux 91 W/m
07.01.2017 08:55 -3,1 C 0,5 C 70 % 1032,0 hPa 0,0 l/m 19,8 km/h (3 Bft) S-SO22.5 165 5 min 13,3 klux 91 W/m
07.01.2017 09:00 -3,0 C 0,6 C 71 % 1032,0 hPa 0,0 l/m 20,0 km/h (4 Bft) S22.5 180 5 min 13,3 klux 91 W/m
07.01.2017 09:05 -3,0 C 0,6 C 71 % 1032,0 hPa 0,0 l/m 20,0 km/h (4 Bft) S22.5 180 5 min 13,3 klux 91 W/m
07.01.2017 09:10 -3,0 C 0,6 C 71 % 1032,0 hPa 0,0 l/m 21,1 km/h (4 Bft) S22.5 175 5 min 13,3 klux 91 W/m
07.01.2017 09:15 -3,0 C 0,6 C 71 % 1032,0 hPa 0,0 l/m 16,6 km/h (3 Bft) S22.5 170 5 min 13,3 klux 91 W/m
07.01.2017 09:20 -3,0 C 0,6 C 71 % 1032,0 hPa 0,0 l/m 16,4 km/h (3 Bft) S45 175 5 min 13,3 klux 91 W/m
07.01.2017 09:25 -3,0 C 0,5 C 71 % 1032,0 hPa 0,0 l/m 17,1 km/h (3 Bft) S22.5 180 5 min 13,3 klux 91 W/m
07.01.2017 09:30 -3,0 C 0,6 C 72 % 1032,0 hPa 0,0 l/m 19,1 km/h (3 Bft) S45 180 5 min 13,3 klux 91 W/m
07.01.2017 09:35 -3,0 C 0,4 C 72 % 1032,0 hPa 0,0 l/m 17,0 km/h (3 Bft) S22.5 180 5 min 13,3 klux 91 W/m
07.01.2017 09:40 -3,0 C 0,6 C 72 % 1032,0 hPa 0,0 l/m 20,6 km/h (4 Bft) S22.5 180 5 min 13,3 klux 91 W/m
07.01.2017 09:46 -3,0 C 0,5 C 72 % 1032,0 hPa 0,0 l/m 21,5 km/h (4 Bft) S22.5 180 6 min 13,3 klux 91 W/m
07.01.2017 09:50 -3,0 C 0,5 C 71 % 1032,0 hPa 0,0 l/m 22,0 km/h (4 Bft) S22.5 180 4 min 13,3 klux 91 W/m
07.01.2017 09:55 -3,0 C 0,5 C 71 % 1032,0 hPa 0,0 l/m 22,3 km/h (4 Bft) S45 180 5 min 13,3 klux 91 W/m
07.01.2017 10:00 -3,0 C 0,5 C 71 % 1032,0 hPa 0,0 l/m 21,1 km/h (4 Bft) S22.5 175 5 min 13,3 klux 91 W/m
07.01.2017 10:05 -3,0 C 0,5 C 71 % 1032,0 hPa 0,0 l/m 21,0 km/h (4 Bft) S22.5 170 5 min 13,3 klux 91 W/m
07.01.2017 10:10 -3,0 C 0,5 C 71 % 1032,0 hPa 0,0 l/m 20,6 km/h (4 Bft) S-SO22.5 165 5 min 13,3 klux 91 W/m
07.01.2017 10:15 -3,0 C 0,5 C 71 % 1032,0 hPa 0,0 l/m 21,8 km/h (4 Bft) S22.5 180 5 min 13,3 klux 91 W/m
07.01.2017 10:20 -3,0 C 0,3 C 71 % 1032,0 hPa 0,0 l/m 25,8 km/h (4 Bft) S22.5 180 0 min 13,3 klux 91 W/m
07.01.2017 10:26 -2,9 C 0,6 C 71 % 1032,0 hPa 0,0 l/m 26,4 km/h (4 Bft) S22.5 175 0 min 13,3 klux 91 W/m
07.01.2017 10:30 -2,9 C 0,6 C 70 % 1032,0 hPa 0,0 l/m 24,5 km/h (4 Bft) S22.5 180 0 min 13,3 klux 91 W/m
07.01.2017 10:35 -2,9 C 0,6 C 71 % 1032,0 hPa 0,0 l/m 19,1 km/h (3 Bft) S22.5 180 0 min 13,3 klux 91 W/m
07.01.2017 10:40 -2,9 C 0,5 C 71 % 1031,0 hPa 0,0 l/m 26,9 km/h (4 Bft) S22.5 180 0 min 13,3 klux 91 W/m
07.01.2017 10:45 -2,8 C 0,5 C 71 % 1032,0 hPa 0,0 l/m 24,2 km/h (4 Bft) S45 190 0 min 13,3 klux 91 W/m
07.01.2017 10:51 -2,7 C 0,6 C 71 % 1031,0 hPa 0,0 l/m 21,5 km/h (4 Bft) S22.5 180 0 min 13,3 klux 91 W/m
07.01.2017 10:55 -2,7 C 0,7 C 72 % 1031,0 hPa 0,0 l/m 24,8 km/h (4 Bft) S22.5 180 0 min 13,3 klux 91 W/m
07.01.2017 11:00 -2,7 C 0,5 C 72 % 1031,0 hPa 0,0 l/m 23,8 km/h (4 Bft) S45 175 0 min 13,3 klux 91 W/m
07.01.2017 11:06 -2,7 C 0,7 C 73 % 1031,0 hPa 0,0 l/m 21,5 km/h (4 Bft) S22.5 175 0 min 13,3 klux 91 W/m
07.01.2017 11:10 -2,6 C 0,7 C 73 % 1031,0 hPa 0,0 l/m 20,0 km/h (4 Bft) S45 180 0 min 13,3 klux 91 W/m
07.01.2017 11:15 -2,6 C 0,5 C 74 % 1031,0 hPa 0,0 l/m 20,6 km/h (4 Bft) S22.5 180 0 min 13,3 klux 91 W/m
07.01.2017 11:20 -2,6 C 0,6 C 74 % 1031,0 hPa 0,0 l/m 24,7 km/h (4 Bft) S22.5 185 0 min 13,3 klux 91 W/m
07.01.2017 11:25 -2,6 C 0,6 C 75 % 1031,0 hPa 0,0 l/m 27,6 km/h (5 Bft) S22.5 180 0 min 13,3 klux 91 W/m
07.01.2017 11:31 -2,7 C 0,7 C 75 % 1031,0 hPa 0,0 l/m 26,3 km/h (4 Bft) S22.5 180 0 min 13,3 klux 91 W/m
07.01.2017 11:35 -2,7 C 0,7 C 76 % 1031,0 hPa 0,0 l/m 20,1 km/h (4 Bft) S45 185 0 min 13,3 klux 91 W/m
07.01.2017 11:40 -2,7 C 0,6 C 76 % 1031,0 hPa 0,0 l/m 24,3 km/h (4 Bft) S22.5 180 0 min 13,3 klux 91 W/m
07.01.2017 11:45 -2,7 C 0,5 C 77 % 1031,0 hPa 0,0 l/m 26,3 km/h (4 Bft) S22.5 180 0 min 13,3 klux 91 W/m
07.01.2017 11:50 -2,7 C 0,6 C 77 % 1031,0 hPa 0,0 l/m 23,0 km/h (4 Bft) S22.5 170 0 min 13,3 klux 91 W/m
07.01.2017 11:56 -2,7 C 0,6 C 76 % 1031,0 hPa 0,0 l/m 23,4 km/h (4 Bft) S22.5 175 0 min 13,3 klux 91 W/m
07.01.2017 12:00 -2,7 C 0,6 C 76 % 1031,0 hPa 0,0 l/m 25,3 km/h (4 Bft) S22.5 180 0 min 13,3 klux 91 W/m
07.01.2017 12:05 -2,6 C 0,5 C 77 % 1031,0 hPa 0,0 l/m 25,8 km/h (4 Bft) S45 180 0 min 13,3 klux 91 W/m
07.01.2017 12:10 -2,7 C 0,6 C 77 % 1030,0 hPa 0,0 l/m 27,7 km/h (5 Bft) S45 175 0 min 13,3 klux 91 W/m
07.01.2017 12:15 -2,6 C 0,6 C 77 % 1030,0 hPa 0,0 l/m 20,3 km/h (4 Bft) S22.5 175 0 min 13,3 klux 91 W/m
07.01.2017 12:21 -2,6 C 0,5 C 77 % 1031,0 hPa 0,0 l/m 24,4 km/h (4 Bft) S45 180 0 min 13,3 klux 91 W/m
07.01.2017 12:25 -2,6 C 0,5 C 77 % 1031,0 hPa 0,0 l/m 21,5 km/h (4 Bft) S22.5 180 0 min 13,3 klux 91 W/m
07.01.2017 12:31 -2,6 C 0,6 C 77 % 1030,0 hPa 0,0 l/m 23,0 km/h (4 Bft) S22.5 185 0 min 13,3 klux 91 W/m
07.01.2017 12:30 -2,6 C 0,6 C 77 % 1030,0 hPa 0,0 l/m 23,0 km/h (4 Bft) S22.5 185 0 min 13,3 klux 91 W/m
07.01.2017 12:35 -2,6 C 0,6 C 78 % 1030,0 hPa 0,0 l/m 14,5 km/h (3 Bft) S45 180 0 min 13,3 klux 91 W/m
07.01.2017 12:40 -2,5 C 0,6 C 78 % 1030,0 hPa 0,0 l/m 18,1 km/h (3 Bft) S22.5 180 0 min 13,3 klux 91 W/m
07.01.2017 12:45 -2,5 C 0,5 C 79 % 1030,0 hPa 0,0 l/m 16,8 km/h (3 Bft) S22.5 175 0 min 13,3 klux 91 W/m
07.01.2017 12:50 -2,5 C 0,5 C 80 % 1030,0 hPa 0,0 l/m 16,7 km/h (3 Bft) S22.5 175 0 min 13,3 klux 91 W/m
07.01.2017 12:55 -2,6 C 0,6 C 80 % 1030,0 hPa 0,0 l/m 20,4 km/h (4 Bft) S22.5 185 0 min 13,3 klux 91 W/m
07.01.2017 13:00 -2,6 C 0,6 C 80 % 1030,0 hPa 0,0 l/m 18,8 km/h (3 Bft) S45 180 0 min 13,3 klux 91 W/m
07.01.2017 13:05 -2,7 C 0,6 C 81 % 1030,0 hPa 0,0 l/m 19,2 km/h (3 Bft) S22.5 175 0 min 13,3 klux 91 W/m
07.01.2017 13:10 -2,7 C 0,6 C 82 % 1030,0 hPa 0,0 l/m 19,8 km/h (3 Bft) S22.5 180 0 min 13,3 klux 91 W/m
07.01.2017 13:15 -2,6 C 0,6 C 82 % 1030,0 hPa 0,0 l/m 17,4 km/h (3 Bft) S22.5 185 0 min 13,3 klux 91 W/m
07.01.2017 13:20 -2,6 C 0,6 C 83 % 1030,0 hPa 0,0 l/m 16,1 km/h (3 Bft) S22.5 175 0 min 13,3 klux 91 W/m
07.01.2017 13:25 -2,6 C 0,6 C 83 % 1030,0 hPa 0,0 l/m 16,0 km/h (3 Bft) S22.5 180 0 min 13,3 klux 91 W/m
07.01.2017 13:30 -2,6 C 0,6 C 83 % 1030,0 hPa 0,0 l/m 20,5 km/h (4 Bft) S22.5 180 0 min 13,3 klux 91 W/m
07.01.2017 13:35 -2,6 C 0,7 C 83 % 1030,0 hPa 0,0 l/m 19,6 km/h (3 Bft) S22.5 180 0 min 13,3 klux 91 W/m
07.01.2017 13:40 -2,6 C 0,7 C 83 % 1029,0 hPa 0,0 l/m 20,5 km/h (4 Bft) S22.5 180 0 min 13,3 klux 91 W/m
07.01.2017 13:45 -2,6 C 0,7 C 83 % 1029,0 hPa 0,0 l/m 19,0 km/h (3 Bft) S22.5 185 0 min 13,3 klux 91 W/m
07.01.2017 13:50 -2,5 C 0,6 C 83 % 1029,0 hPa 0,0 l/m 17,9 km/h (3 Bft) S22.5 180 0 min 13,3 klux 91 W/m
07.01.2017 13:55 -2,4 C 0,6 C 84 % 1029,0 hPa 0,0 l/m 15,3 km/h (3 Bft) S22.5 180 0 min 13,3 klux 91 W/m
07.01.2017 14:00 -2,5 C 0,6 C 83 % 1029,0 hPa 0,0 l/m 16,4 km/h (3 Bft) S45 185 0 min 13,3 klux 91 W/m
07.01.2017 14:05 -2,4 C 0,7 C 84 % 1029,0 hPa 0,0 l/m 19,6 km/h (3 Bft) S45 180 0 min 13,3 klux 91 W/m
07.01.2017 14:10 -2,4 C 0,6 C 84 % 1029,0 hPa 0,0 l/m 18,2 km/h (3 Bft) S22.5 180 0 min 13,3 klux 91 W/m
07.01.2017 14:15 -2,4 C 0,7 C 84 % 1029,0 hPa 0,0 l/m 15,2 km/h (3 Bft) S22.5 185 0 min 13,3 klux 91 W/m
07.01.2017 14:20 -2,4 C 0,7 C 84 % 1029,0 hPa 0,0 l/m 15,8 km/h (3 Bft) S22.5 180 0 min 13,3 klux 91 W/m
07.01.2017 14:25 -2,3 C 0,6 C 84 % 1029,0 hPa 0,0 l/m 16,1 km/h (3 Bft) S45 175 0 min 13,3 klux 91 W/m
07.01.2017 14:30 -2,4 C 0,7 C 85 % 1029,0 hPa 0,0 l/m 14,7 km/h (3 Bft) S22.5 170 0 min 13,3 klux 91 W/m
07.01.2017 14:35 -2,4 C 0,6 C 85 % 1029,0 hPa 0,0 l/m 13,7 km/h (3 Bft) S22.5 185 0 min 13,3 klux 91 W/m
07.01.2017 14:40 -2,3 C 0,8 C 85 % 1029,0 hPa 0,0 l/m 15,4 km/h (3 Bft) S45 190 0 min 13,3 klux 91 W/m
07.01.2017 14:45 -2,4 C 0,7 C 85 % 1029,0 hPa 0,0 l/m 16,6 km/h (3 Bft) S22.5 185 0 min 13,3 klux 91 W/m
07.01.2017 14:51 -2,3 C 0,8 C 85 % 1029,0 hPa 0,0 l/m 14,0 km/h (3 Bft) S22.5 180 0 min 13,3 klux 91 W/m
07.01.2017 14:55 -2,2 C 0,8 C 86 % 1029,0 hPa 0,0 l/m 12,3 km/h (2 Bft) S22.5 175 0 min 13,3 klux 91 W/m
07.01.2017 15:00 -2,2 C 1,0 C 86 % 1029,0 hPa 0,0 l/m 13,2 km/h (3 Bft) S22.5 175 0 min 13,3 klux 91 W/m
07.01.2017 15:05 -2,2 C 0,8 C 86 % 1029,0 hPa 0,0 l/m 11,9 km/h (2 Bft) S22.5 190 5 min 13,3 klux 91 W/m
07.01.2017 15:10 -2,2 C 0,8 C 86 % 1029,0 hPa 0,0 l/m 12,0 km/h (2 Bft) S22.5 185 5 min 13,3 klux 91 W/m
07.01.2017 15:15 -2,1 C 0,9 C 86 % 1029,0 hPa 0,0 l/m 12,0 km/h (2 Bft) S22.5 190 5 min 13,3 klux 91 W/m
07.01.2017 15:20 -2,1 C 0,8 C 86 % 1029,0 hPa 0,0 l/m 11,2 km/h (2 Bft) S22.5 180 5 min 13,3 klux 91 W/m
07.01.2017 15:25 -2,1 C 0,8 C 86 % 1029,0 hPa 0,0 l/m 14,6 km/h (3 Bft) S22.5 185 5 min 13,3 klux 91 W/m
07.01.2017 15:30 -2,0 C 0,8 C 86 % 1029,0 hPa 0,0 l/m 12,3 km/h (2 Bft) S22.5 185 5 min 13,3 klux 91 W/m
07.01.2017 15:35 -2,0 C 0,9 C 87 % 1029,0 hPa 0,0 l/m 13,2 km/h (3 Bft) S22.5 185 5 min 13,3 klux 91 W/m
07.01.2017 15:41 -2,0 C 0,9 C 87 % 1029,0 hPa 0,0 l/m 11,0 km/h (2 Bft) S22.5 185 6 min 13,3 klux 91 W/m
07.01.2017 15:45 -2,0 C 0,8 C 87 % 1029,0 hPa 0,0 l/m 12,3 km/h (2 Bft) S22.5 180 4 min 13,3 klux 91 W/m
07.01.2017 15:50 -2,0 C 0,9 C 87 % 1029,0 hPa 0,0 l/m 11,0 km/h (2 Bft) S22.5 180 5 min 13,3 klux 91 W/m
07.01.2017 15:55 -2,0 C 0,9 C 87 % 1029,0 hPa 0,0 l/m 10,3 km/h (2 Bft) S22.5 170 5 min 13,3 klux 91 W/m
07.01.2017 16:00 -1,9 C 0,9 C 87 % 1029,0 hPa 0,0 l/m 10,2 km/h (2 Bft) S-SO22.5 160 5 min 13,3 klux 91 W/m
07.01.2017 16:05 -2,0 C 0,9 C 87 % 1029,0 hPa 0,0 l/m 12,8 km/h (3 Bft) S22.5 185 5 min 13,3 klux 91 W/m
07.01.2017 16:10 -1,9 C 1,0 C 88 % 1029,0 hPa 0,0 l/m 13,6 km/h (3 Bft) S22.5 180 5 min 13,3 klux 91 W/m
07.01.2017 16:15 -1,9 C 1,0 C 88 % 1029,0 hPa 0,0 l/m 10,1 km/h (2 Bft) S22.5 180 5 min 13,3 klux 91 W/m
07.01.2017 16:21 -1,9 C 0,8 C 88 % 1029,0 hPa 0,0 l/m 15,1 km/h (3 Bft) S-SW22.5 195 6 min 13,3 klux 91 W/m
07.01.2017 16:25 -1,8 C 1,0 C 88 % 1029,0 hPa 0,0 l/m 12,4 km/h (2 Bft) S22.5 180 4 min 13,3 klux 91 W/m
07.01.2017 16:30 -1,8 C 0,9 C 88 % 1029,0 hPa 0,0 l/m 13,9 km/h (3 Bft) S22.5 185 0 min 13,3 klux 91 W/m
07.01.2017 16:35 -1,8 C 1,0 C 88 % 1029,0 hPa 0,0 l/m 15,3 km/h (3 Bft) S22.5 175 0 min 13,3 klux 91 W/m
07.01.2017 16:40 -1,8 C 1,0 C 88 % 1029,0 hPa 0,0 l/m 11,1 km/h (2 Bft) S22.5 170 0 min 13,3 klux 0 W/m
07.01.2017 16:45 -1,8 C 0,9 C 88 % 1029,0 hPa 0,0 l/m 10,8 km/h (2 Bft) S22.5 180 0 min 13,3 klux 0 W/m
07.01.2017 16:50 -1,7 C 1,0 C 88 % 1029,0 hPa 0,0 l/m 11,3 km/h (2 Bft) S22.5 175 0 min 13,3 klux 0 W/m
07.01.2017 16:55 -1,6 C 0,9 C 88 % 1029,0 hPa 0,0 l/m 11,6 km/h (2 Bft) S22.5 175 0 min 13,3 klux 0 W/m
07.01.2017 17:00 -1,6 C 1,0 C 88 % 1029,0 hPa 0,0 l/m 10,8 km/h (2 Bft) S22.5 185 0 min 13,3 klux 0 W/m
07.01.2017 17:05 -1,6 C 1,0 C 88 % 1029,0 hPa 0,0 l/m 10,5 km/h (2 Bft) S22.5 175 0 min 13,3 klux 0 W/m
07.01.2017 17:10 -1,6 C 1,1 C 88 % 1029,0 hPa 0,0 l/m 10,5 km/h (2 Bft) S22.5 185 0 min 13,3 klux 0 W/m
07.01.2017 17:15 -1,6 C 1,0 C 88 % 1029,0 hPa 0,0 l/m 8,5 km/h (2 Bft) S 175 0 min 13,3 klux 0 W/m
07.01.2017 17:20 -1,6 C 0,9 C 88 % 1029,0 hPa 0,0 l/m 11,6 km/h (2 Bft) S22.5 180 0 min 13,3 klux 0 W/m
07.01.2017 17:25 -1,6 C 1,0 C 88 % 1029,0 hPa 0,0 l/m 8,3 km/h (2 Bft) S22.5 185 0 min 13,3 klux 0 W/m
07.01.2017 17:30 -1,5 C 1,1 C 89 % 1029,0 hPa 0,0 l/m 9,9 km/h (2 Bft) S22.5 180 0 min 13,3 klux 0 W/m
07.01.2017 17:36 -1,5 C 1,1 C 89 % 1028,0 hPa 0,0 l/m 8,9 km/h (2 Bft) S 185 0 min 13,3 klux 0 W/m
07.01.2017 17:40 -1,4 C 1,0 C 89 % 1028,0 hPa 0,0 l/m 8,5 km/h (2 Bft) S 180 0 min 13,3 klux 0 W/m
07.01.2017 17:45 -1,4 C 1,2 C 89 % 1028,0 hPa 0,0 l/m 9,8 km/h (2 Bft) S22.5 190 0 min 13,3 klux 0 W/m
07.01.2017 17:50 -1,4 C 1,2 C 89 % 1028,0 hPa 0,0 l/m 9,4 km/h (2 Bft) S22.5 190 0 min 13,3 klux 0 W/m
07.01.2017 17:55 -1,3 C 1,2 C 89 % 1028,0 hPa 0,0 l/m 11,5 km/h (2 Bft) S-SW45 200 0 min 13,3 klux 0 W/m
07.01.2017 18:01 -1,1 C 1,2 C 89 % 1028,0 hPa 0,0 l/m 10,8 km/h (2 Bft) S-SW22.5 205 0 min 13,3 klux 0 W/m
07.01.2017 18:05 -1,0 C 1,2 C 89 % 1028,0 hPa 0,0 l/m 14,3 km/h (3 Bft) SW22.5 220 0 min 13,3 klux 0 W/m
07.01.2017 18:10 -0,9 C 1,2 C 89 % 1028,0 hPa 0,0 l/m 11,9 km/h (2 Bft) SW45 215 0 min 13,3 klux 0 W/m
07.01.2017 18:15 -0,8 C 1,2 C 89 % 1028,0 hPa 0,0 l/m 14,4 km/h (3 Bft) SW45 215 0 min 13,3 klux 0 W/m
07.01.2017 18:20 -0,7 C 1,2 C 89 % 1028,0 hPa 0,0 l/m 10,5 km/h (2 Bft) SW22.5 215 0 min 13,3 klux 0 W/m
07.01.2017 18:25 -0,7 C 1,2 C 89 % 1028,0 hPa 0,0 l/m 14,5 km/h (3 Bft) SW22.5 220 0 min 13,3 klux 0 W/m
07.01.2017 18:30 -0,7 C 1,2 C 89 % 1028,0 hPa 0,0 l/m 12,0 km/h (2 Bft) SW45 225 0 min 13,3 klux 0 W/m
07.01.2017 18:35 -0,7 C 1,2 C 89 % 1028,0 hPa 0,0 l/m 15,1 km/h (3 Bft) SW45 230 0 min 13,3 klux 0 W/m
07.01.2017 18:40 -0,7 C 1,2 C 89 % 1028,0 hPa 0,0 l/m 20,6 km/h (4 Bft) SW67.5 225 0 min 13,3 klux 0 W/m
07.01.2017 18:45 -0,7 C 1,1 C 89 % 1028,0 hPa 0,0 l/m 18,6 km/h (3 Bft) SW45 225 0 min 13,3 klux 0 W/m
07.01.2017 18:50 -0,7 C 1,2 C 90 % 1028,0 hPa 0,0 l/m 16,8 km/h (3 Bft) SW67.5 230 0 min 13,3 klux 0 W/m
07.01.2017 18:55 -0,7 C 1,2 C 90 % 1028,0 hPa 0,0 l/m 16,6 km/h (3 Bft) SW45 225 0 min 13,3 klux 0 W/m
07.01.2017 19:01 -0,7 C 1,2 C 90 % 1028,0 hPa 0,0 l/m 12,1 km/h (2 Bft) SW45 220 0 min 13,3 klux 0 W/m
07.01.2017 19:05 -0,7 C 1,2 C 90 % 1028,0 hPa 0,0 l/m 15,8 km/h (3 Bft) SW22.5 220 0 min 13,3 klux 0 W/m
07.01.2017 19:10 -0,7 C 1,2 C 90 % 1028,0 hPa 0,0 l/m 16,0 km/h (3 Bft) SW45 220 0 min 13,3 klux 0 W/m
07.01.2017 19:16 -0,6 C 1,2 C 90 % 1028,0 hPa 0,0 l/m 15,6 km/h (3 Bft) SW45 225 0 min 13,3 klux 0 W/m
07.01.2017 19:20 -0,7 C 1,2 C 90 % 1028,0 hPa 0,0 l/m 14,0 km/h (3 Bft) SW22.5 225 0 min 13,3 klux 0 W/m
07.01.2017 19:25 -0,6 C 1,2 C 90 % 1028,0 hPa 0,0 l/m 15,1 km/h (3 Bft) SW45 220 0 min 13,3 klux 0 W/m
07.01.2017 19:30 -0,6 C 1,2 C 90 % 1028,0 hPa 0,0 l/m 9,8 km/h (2 Bft) SW45 225 0 min 13,3 klux 0 W/m
07.01.2017 19:35 -0,6 C 1,3 C 90 % 1028,0 hPa 0,0 l/m 10,5 km/h (2 Bft) SW22.5 230 0 min 13,3 klux 0 W/m
07.01.2017 19:41 -0,6 C 1,2 C 90 % 1028,0 hPa 0,0 l/m 12,3 km/h (2 Bft) SW45 220 0 min 13,3 klux 0 W/m
07.01.2017 19:45 -0,6 C 1,3 C 90 % 1028,0 hPa 0,0 l/m 8,8 km/h (2 Bft) SW22.5 235 0 min 13,3 klux 0 W/m
07.01.2017 19:50 -0,6 C 1,3 C 90 % 1028,0 hPa 0,0 l/m 8,4 km/h (2 Bft) SW45 215 0 min 13,3 klux 0 W/m
07.01.2017 19:55 -0,5 C 1,2 C 90 % 1028,0 hPa 0,0 l/m 7,3 km/h (2 Bft) S-SW 210 0 min 13,3 klux 0 W/m
07.01.2017 20:00 -0,5 C 1,3 C 90 % 1028,0 hPa 0,0 l/m 10,3 km/h (2 Bft) SW45 215 0 min 13,3 klux 0 W/m
07.01.2017 20:05 -0,5 C 1,2 C 90 % 1028,0 hPa 0,0 l/m 11,4 km/h (2 Bft) S-SW22.5 210 0 min 13,3 klux 0 W/m
07.01.2017 20:10 -0,5 C 1,3 C 90 % 1028,0 hPa 0,0 l/m 9,0 km/h (2 Bft) S-SW22.5 200 0 min 13,3 klux 0 W/m
07.01.2017 20:15 -0,4 C 1,4 C 90 % 1028,0 hPa 0,0 l/m 10,8 km/h (2 Bft) SW22.5 220 0 min 13,3 klux 0 W/m
07.01.2017 20:20 -0,4 C 1,3 C 90 % 1028,0 hPa 0,0 l/m 7,8 km/h (2 Bft) SW22.5 220 0 min 13,3 klux 0 W/m
07.01.2017 20:25 -0,4 C 1,3 C 90 % 1028,0 hPa 0,0 l/m 8,7 km/h (2 Bft) S-SW45 210 0 min 13,3 klux 0 W/m
07.01.2017 20:30 -0,5 C 1,3 C 90 % 1028,0 hPa 0,0 l/m 7,6 km/h (2 Bft) SW22.5 215 0 min 13,3 klux 0 W/m
07.01.2017 20:35 -0,4 C 1,2 C 90 % 1028,0 hPa 0,0 l/m 10,1 km/h (2 Bft) S-SW22.5 210 0 min 13,3 klux 0 W/m
07.01.2017 20:41 -0,4 C 1,4 C 90 % 1028,0 hPa 0,0 l/m 8,0 km/h (2 Bft) S-SW22.5 210 0 min 13,3 klux 0 W/m
07.01.2017 20:45 -0,4 C 1,4 C 90 % 1028,0 hPa 0,0 l/m 9,0 km/h (2 Bft) SW22.5 220 0 min 13,3 klux 0 W/m
07.01.2017 20:50 -0,4 C 1,3 C 90 % 1028,0 hPa 0,0 l/m 7,9 km/h (2 Bft) S-SW22.5 200 0 min 13,3 klux 0 W/m
07.01.2017 20:55 -0,4 C 1,3 C 90 % 1028,0 hPa 0,0 l/m 8,3 km/h (2 Bft) S-SW22.5 210 0 min 13,3 klux 0 W/m
07.01.2017 21:00 -0,4 C 1,3 C 90 % 1028,0 hPa 0,0 l/m 9,4 km/h (2 Bft) S-SW22.5 210 0 min 13,3 klux 0 W/m
07.01.2017 21:05 -0,3 C 1,3 C 90 % 1028,0 hPa 0,0 l/m 8,5 km/h (2 Bft) S-SW22.5 210 0 min 13,3 klux 0 W/m
07.01.2017 21:10 -0,3 C 1,4 C 90 % 1028,0 hPa 0,0 l/m 7,1 km/h (2 Bft) S-SW22.5 210 0 min 13,3 klux 0 W/m
07.01.2017 21:15 -0,3 C 1,3 C 90 % 1028,0 hPa 0,0 l/m 5,6 km/h (2 Bft) SW 215 0 min 13,3 klux 0 W/m
07.01.2017 21:20 -0,3 C 1,3 C 90 % 1028,0 hPa 0,0 l/m 6,1 km/h (2 Bft) SW 220 0 min 13,3 klux 0 W/m
07.01.2017 21:25 -0,3 C 1,4 C 90 % 1028,0 hPa 0,0 l/m 5,6 km/h (2 Bft) SW 225 0 min 13,3 klux 0 W/m
07.01.2017 21:30 -0,3 C 1,4 C 90 % 1028,0 hPa 0,0 l/m 7,0 km/h (2 Bft) SW 225 0 min 13,3 klux 0 W/m
07.01.2017 21:35 -0,3 C 1,5 C 90 % 1028,0 hPa 0,1 l/m 4,8 km/h (1 Bft) SW 225 0 min 13,3 klux 0 W/m
07.01.2017 21:41 -0,3 C 1,5 C 90 % 1028,0 hPa 0,0 l/m 4,1 km/h (1 Bft) SW 225 0 min 13,3 klux 0 W/m
07.01.2017 21:45 -0,2 C 1,4 C 90 % 1028,0 hPa 0,0 l/m 4,6 km/h (1 Bft) SW 225 0 min 13,3 klux 0 W/m
07.01.2017 21:50 -0,2 C 1,4 C 90 % 1028,0 hPa 0,1 l/m 5,3 km/h (1 Bft) SW 225 0 min 13,3 klux 0 W/m
07.01.2017 21:55 -0,2 C 1,4 C 90 % 1028,0 hPa 0,0 l/m 7,4 km/h (2 Bft) SW22.5 225 0 min 13,3 klux 0 W/m
07.01.2017 22:00 -0,2 C 1,5 C 90 % 1028,0 hPa 0,0 l/m 9,7 km/h (2 Bft) SW22.5 225 0 min 13,3 klux 0 W/m
07.01.2017 22:05 -0,2 C 1,4 C 90 % 1028,0 hPa 0,0 l/m 7,6 km/h (2 Bft) SW22.5 215 0 min 13,3 klux 0 W/m
07.01.2017 22:10 -0,2 C 1,4 C 90 % 1028,0 hPa 0,0 l/m 8,0 km/h (2 Bft) SW 230 0 min 13,3 klux 0 W/m
07.01.2017 22:15 -0,2 C 1,5 C 90 % 1028,0 hPa 0,0 l/m 7,8 km/h (2 Bft) SW 230 0 min 13,3 klux 0 W/m
07.01.2017 22:21 -0,2 C 1,4 C 90 % 1028,0 hPa 0,0 l/m 6,9 km/h (2 Bft) SW45 215 0 min 13,3 klux 0 W/m
07.01.2017 22:25 -0,2 C 1,6 C 90 % 1028,0 hPa 0,0 l/m 4,3 km/h (1 Bft) SW 230 0 min 13,3 klux 0 W/m
07.01.2017 22:30 -0,2 C 1,6 C 90 % 1028,0 hPa 0,1 l/m 0,0 km/h (0 Bft) SW 230 0 min 13,3 klux 0 W/m
07.01.2017 22:35 -0,2 C 1,6 C 90 % 1028,0 hPa 0,0 l/m 0,0 km/h (0 Bft) SW 230 0 min 13,3 klux 0 W/m
07.01.2017 22:40 0,0 C 1,6 C 90 % 1028,0 hPa 0,0 l/m 5,9 km/h (2 Bft) SW22.5 235 0 min 13,3 klux 0 W/m
07.01.2017 22:45 0,0 C 1,6 C 90 % 1028,0 hPa 0,0 l/m 0,5 km/h (0 Bft) W-SW 250 0 min 13,3 klux 0 W/m
07.01.2017 22:50 -0,2 C 1,6 C 90 % 1028,0 hPa 0,0 l/m 5,9 km/h (2 Bft) W-SW 250 0 min 13,3 klux 0 W/m
07.01.2017 22:55 0,0 C 1,6 C 90 % 1028,0 hPa 0,0 l/m 8,6 km/h (2 Bft) W-SW22.5 250 0 min 13,3 klux 0 W/m
07.01.2017 23:00 0,0 C 1,5 C 90 % 1028,0 hPa 0,0 l/m 0,5 km/h (0 Bft) W 260 0 min 13,3 klux 0 W/m
07.01.2017 23:05 0,0 C 1,5 C 90 % 1028,0 hPa 0,0 l/m 9,6 km/h (2 Bft) SW22.5 225 0 min 13,3 klux 0 W/m
07.01.2017 23:10 0,1 C 1,5 C 91 % 1028,0 hPa 0,0 l/m 8,5 km/h (2 Bft) W-SW22.5 240 0 min 13,3 klux 0 W/m
07.01.2017 23:15 0,1 C 1,5 C 91 % 1028,0 hPa 0,0 l/m 9,1 km/h (2 Bft) W-SW 250 0 min 13,3 klux 0 W/m
07.01.2017 23:21 0,1 C 1,4 C 91 % 1028,0 hPa 0,0 l/m 6,9 km/h (2 Bft) SW22.5 235 0 min 13,3 klux 0 W/m
07.01.2017 23:25 0,1 C 1,5 C 91 % 1028,0 hPa 0,1 l/m 7,1 km/h (2 Bft) W-SW 240 0 min 13,3 klux 0 W/m
07.01.2017 23:30 0,1 C 1,6 C 91 % 1028,0 hPa 0,0 l/m 10,3 km/h (2 Bft) SW22.5 235 0 min 13,3 klux 0 W/m
07.01.2017 23:35 0,1 C 1,6 C 91 % 1028,0 hPa 0,0 l/m 9,6 km/h (2 Bft) W-SW22.5 240 0 min 13,3 klux 0 W/m
07.01.2017 23:40 0,2 C 1,6 C 91 % 1028,0 hPa 0,0 l/m 8,9 km/h (2 Bft) W-SW45 250 0 min 13,3 klux 0 W/m
07.01.2017 23:46 0,1 C 1,4 C 91 % 1028,0 hPa 0,0 l/m 7,8 km/h (2 Bft) W-SW 240 0 min 13,3 klux 0 W/m
07.01.2017 23:50 0,2 C 1,5 C 91 % 1028,0 hPa 0,0 l/m 8,0 km/h (2 Bft) W-SW 245 0 min 13,3 klux 0 W/m
07.01.2017 23:55 0,2 C 1,5 C 91 % 1028,0 hPa 0,0 l/m 7,0 km/h (2 Bft) SW 235 0 min 13,3 klux 0 W/m
_ Min-Zeit 01:40 10:20 08:55 23:40 - 22:30 - - - - -
Minimum _ -4,0 C 0,3 C 70 % 1028,0 hPa - 0,0 km/h (0 Bft) - - - - -
_ Max-Zeit 23:40 22:25 23:10 00:00 21:35 12:10 - - 09:46 00:00 08:45
Maximum _ 0,2 C 1,6 C 91 % 1036,1 hPa 0,1 l/m 27,7 km/h
S (5 Bft)
- - 6 min 13,3 klux 91 W/m
Durchschnitt _ -2,4 C 0,9 C 80 % 1031,0 hPa #0,5 l/m 15,5 km/h (3 Bft) S - #2:50 h 13,3 klux 91 W/m